Weather History for Sidney-Richland, MT

Change the Weather History Date:

Sunday, August 11, 2013

  Actual Average Record
Temperature  
Mean Temperature 66 °F -  
Max Temperature 78 °F 87 °F 100 °F (2006)
Min Temperature 53 °F 54 °F 38 °F (1914)
Growing Degree Days 16 (Base 50)    
Moisture  
Dew Point 57 °F    
Average Humidity 75    
Maximum Humidity 94    
Minimum Humidity 51    
Precipitation  
Precipitation 0.00 in - - ()
Sea Level Pressure  
Sea Level Pressure 30.14 in    
Wind  
Wind Speed 5 mph (ENE)    
Max Wind Speed 10 mph    
Max Gust Speed -    
Visibility 9 miles    
Events      
Averages and records for this station are not official NWS values.
T = Trace of Precipitation, MM = Missing Value Source: NWS Daily Summary

Daily Weather History Graph

Daily Weather History Graph

Search for Another Location

Airport:

Trip Planner

Search our weather history database for the weather conditions in past years. The results will help you decide how hot, cold, wet, or windy it might be!

Date:

Astronomy

Aug. 11, 2013 Rise Set
Actual Time 5:47 AM MDT 8:15 PM MDT
Civil Twilight 5:12 AM MDT 8:49 PM MDT
Nautical Twilight 4:29 AM MDT 9:33 PM MDT
Astronomical Twilight 3:39 AM MDT 10:22 PM MDT
Moon 11:04 AM MDT (8/11) 10:04 PM MDT (8/11)
Length of Visible Light 15h 37m
Length of Day
14h 28m
Waxing Crescent, 22% of the Moon is Illuminated
Aug 11
Waxing Crescent
Aug 14
First Quarter
Aug 20
Full
Aug 28
Last Quarter
Sep 5
New

Hourly Weather History & Observations

Time (MDT) Temp. Dew Point Humidity Pressure Visibility Wind Dir Wind Speed Gust Speed Precip Events Conditions
12:15 AM 57.2 °F 55.4 °F 94% 30.13 in 6.0 mi NNE 6.9 mph - N/A   Clear
12:35 AM 57.2 °F 55.4 °F 94% 30.14 in 5.0 mi NNE 3.5 mph - N/A   Clear
12:55 AM 57.2 °F 53.6 °F 88% 30.13 in 4.0 mi NNE 6.9 mph - N/A   Clear
1:15 AM 57.2 °F 53.6 °F 88% 30.14 in 6.0 mi NNE 5.8 mph - N/A   Clear
1:35 AM 57.2 °F 53.6 °F 88% 30.14 in 7.0 mi North 5.8 mph - N/A   Clear
1:55 AM 55.4 °F 53.6 °F 94% 30.14 in 7.0 mi North 6.9 mph - N/A   Clear
2:15 AM 55.4 °F 53.6 °F 94% 30.14 in 8.0 mi North 5.8 mph - N/A   Clear
2:55 AM 55.4 °F 53.6 °F 94% 30.15 in 5.0 mi NNE 5.8 mph - N/A   Clear
3:15 AM 55.4 °F 53.6 °F 94% 30.16 in 3.0 mi NNE 5.8 mph - N/A   Clear
3:35 AM 55.4 °F 53.6 °F 94% 30.16 in 3.0 mi North 5.8 mph - N/A   Clear
3:55 AM 55.4 °F 53.6 °F 94% 30.16 in 7.0 mi NNW 3.5 mph - N/A   Clear
4:15 AM 55.4 °F 51.8 °F 88% 30.16 in 9.0 mi Calm Calm - N/A   Clear
4:55 AM 53.6 °F 51.8 °F 94% 30.16 in 9.0 mi North 4.6 mph - N/A   Scattered Clouds
5:15 AM 55.4 °F 51.8 °F 88% 30.16 in 10.0 mi NNE 4.6 mph - N/A   Partly Cloudy
5:35 AM 55.4 °F 51.8 °F 88% 30.16 in 10.0 mi North 3.5 mph - N/A   Partly Cloudy
5:55 AM 53.6 °F 51.8 °F 94% 30.16 in 10.0 mi NNE 4.6 mph - N/A   Scattered Clouds
6:15 AM 53.6 °F 51.8 °F 94% 30.17 in 9.0 mi Calm Calm - N/A   Partly Cloudy
6:35 AM 55.4 °F 51.8 °F 88% 30.18 in 9.0 mi NNE 4.6 mph - N/A   Mostly Cloudy
6:55 AM 53.6 °F 51.8 °F 94% 30.18 in 10.0 mi NNE 5.8 mph - N/A   Mostly Cloudy
7:15 AM 55.4 °F 53.6 °F 94% 30.18 in 10.0 mi NNE 4.6 mph - N/A   Partly Cloudy
7:35 AM 55.4 °F 53.6 °F 94% 30.18 in 10.0 mi NE 3.5 mph - N/A   Clear
7:55 AM 57.2 °F 53.6 °F 88% 30.18 in 10.0 mi NNE 5.8 mph - N/A   Clear
8:15 AM 59.0 °F 53.6 °F 82% 30.18 in 10.0 mi ENE 4.6 mph - N/A   Clear
8:35 AM 60.8 °F 55.4 °F 82% 30.19 in 10.0 mi SSE 3.5 mph - N/A   Mostly Cloudy
8:55 AM 60.8 °F 55.4 °F 82% 30.18 in 10.0 mi Calm Calm - N/A   Overcast
9:15 AM 60.8 °F 55.4 °F 82% 30.18 in 10.0 mi Calm Calm - N/A   Overcast
9:35 AM 62.6 °F 57.2 °F 82% 30.18 in 10.0 mi ESE 5.8 mph - N/A   Overcast
9:55 AM 64.4 °F 57.2 °F 77% 30.18 in 10.0 mi SSE 6.9 mph - N/A   Mostly Cloudy
10:15 AM 64.4 °F 57.2 °F 77% 30.18 in 10.0 mi ESE 5.8 mph - N/A   Mostly Cloudy
10:35 AM 66.2 °F 57.2 °F 73% 30.18 in 10.0 mi East 6.9 mph - N/A   Overcast
10:55 AM 68.0 °F 57.2 °F 68% 30.18 in 10.0 mi ESE 6.9 mph - N/A   Mostly Cloudy
11:15 AM 69.8 °F 59.0 °F 68% 30.18 in 10.0 mi ESE 8.1 mph - N/A   Scattered Clouds
11:35 AM 71.6 °F 59.0 °F 64% 30.17 in 10.0 mi ESE 9.2 mph - N/A   Scattered Clouds
11:55 AM 71.6 °F 59.0 °F 64% 30.16 in 10.0 mi ESE 8.1 mph - N/A   Mostly Cloudy
12:15 PM 71.6 °F 59.0 °F 64% 30.16 in 10.0 mi SE 6.9 mph - N/A   Mostly Cloudy
12:35 PM 73.4 °F 59.0 °F 61% 30.16 in 10.0 mi East 9.2 mph - N/A   Mostly Cloudy
12:55 PM 73.4 °F 59.0 °F 61% 30.15 in 10.0 mi ESE 8.1 mph - N/A   Scattered Clouds
1:15 PM 73.4 °F 59.0 °F 61% 30.15 in 10.0 mi East 9.2 mph - N/A   Scattered Clouds
1:35 PM 73.4 °F 59.0 °F 61% 30.14 in 10.0 mi East 8.1 mph - N/A   Partly Cloudy
1:55 PM 73.4 °F 59.0 °F 61% 30.14 in 10.0 mi East 9.2 mph - N/A   Clear
2:15 PM 75.2 °F 60.8 °F 61% 30.14 in 10.0 mi ESE 6.9 mph - N/A   Partly Cloudy
2:35 PM 75.2 °F 59.0 °F 57% 30.13 in 10.0 mi ESE 10.4 mph - N/A   Partly Cloudy
2:55 PM 77.0 °F 60.8 °F 57% 30.13 in 10.0 mi SE 8.1 mph - N/A   Clear
3:15 PM 77.0 °F 59.0 °F 54% 30.12 in 10.0 mi SE 5.8 mph - N/A   Partly Cloudy
3:35 PM 78.8 °F 59.0 °F 51% 30.12 in 8.0 mi East 8.1 mph - N/A   Partly Cloudy
3:55 PM 78.8 °F 60.8 °F 54% 30.11 in 10.0 mi SE 6.9 mph - N/A   Clear
4:15 PM 78.8 °F 60.8 °F 54% 30.10 in 10.0 mi East 6.9 mph - N/A   Partly Cloudy
4:35 PM 78.8 °F 60.8 °F 54% 30.10 in 10.0 mi Calm Calm - N/A   Partly Cloudy
4:55 PM 78.8 °F 60.8 °F 54% 30.10 in 10.0 mi ENE 6.9 mph - N/A   Scattered Clouds
5:15 PM 78.8 °F 60.8 °F 54% 30.10 in 10.0 mi ESE 5.8 mph - N/A   Partly Cloudy
5:35 PM 78.8 °F 60.8 °F 54% 30.09 in 10.0 mi East 6.9 mph - N/A   Clear
5:55 PM 78.8 °F 59.0 °F 51% 30.09 in 10.0 mi SE 4.6 mph - N/A   Partly Cloudy
6:15 PM 78.8 °F 60.8 °F 54% 30.10 in 10.0 mi East 6.9 mph - N/A   Mostly Cloudy
6:55 PM 77.0 °F 60.8 °F 57% 30.09 in 10.0 mi East 5.8 mph - N/A   Clear
7:15 PM 75.2 °F 59.0 °F 57% 30.09 in 10.0 mi East 5.8 mph - N/A   Clear
7:35 PM 73.4 °F 59.0 °F 61% 30.09 in 10.0 mi ENE 6.9 mph - N/A   Clear
7:55 PM 71.6 °F 60.8 °F 69% 30.10 in 10.0 mi East 5.8 mph - N/A   Clear
8:35 PM 68.0 °F 59.0 °F 73% 30.09 in 10.0 mi NNE 3.5 mph - N/A   Clear
8:55 PM 66.2 °F 60.8 °F 83% 30.09 in 10.0 mi North 4.6 mph - N/A   Clear
9:15 PM 66.2 °F 59.0 °F 78% 30.10 in 10.0 mi North 3.5 mph - N/A   Clear
9:35 PM 66.2 °F 59.0 °F 78% 30.11 in 10.0 mi NNE 5.8 mph - N/A   Clear
9:55 PM 64.4 °F 57.2 °F 77% 30.11 in 10.0 mi Calm Calm - N/A   Clear
10:15 PM 64.4 °F 55.4 °F 73% 30.12 in 10.0 mi NNW 3.5 mph - N/A   Clear
10:35 PM 62.6 °F 55.4 °F 77% 30.12 in 10.0 mi North 4.6 mph - N/A   Clear
11:15 PM 60.8 °F 55.4 °F 82% 30.12 in 10.0 mi North 4.6 mph - N/A   Clear
11:35 PM 60.8 °F 55.4 °F 82% 30.12 in 10.0 mi North 4.6 mph - N/A   Clear
11:55 PM 60.8 °F 55.4 °F 82% 30.13 in 10.0 mi Calm Calm - N/A   Clear